SP1RAC-13 Weather Reports


time (UTC)temp
C
wind
direction
speed
KPH
gust
KPH
rain 1hr
cm
rain 24hr
cm
rain mn
cm
humidity
%
barometer
mb
20260901191309 16 0.0 0.0 0.00 0.00 0.00 96 1014.1
20260901185308 16 0.0 0.0 0.00 0.00 0.00 94 1013.9
20260901184309 16 0.0 0.0 0.00 0.00 0.00 93 1013.9
20260901183308 17 0.0 0.0 0.00 0.00 0.00 92 1013.8
20260901182308 17 0.0 0.0 0.00 0.00 0.00 92 1013.6
20260901181308 17 0.0 0.0 0.00 0.00 0.00 90 1013.6
20260901180308 17 0.0 0.0 0.00 0.00 0.00 89 1013.5
20260901174309 18 0.0 0.0 0.00 0.00 0.00 83 1013.5
20260901173308 18 0.0 0.0 0.00 0.00 0.00 83 1013.2
20260901171308 18 0.0 0.0 0.00 0.00 0.00 81 1013.2
20260901170309 18 0.0 0.0 0.00 0.00 0.00 81 1013.3
20260901163309 18 0.0 0.0 0.00 0.00 0.00 79 1013.2
20260901161309 19 0.0 0.0 0.00 0.00 0.00 76 1013.1
20260901154309 20 0.0 0.0 0.00 0.00 0.00 73 1013.0
20260901153309 20 0.0 0.0 0.00 0.00 0.00 73 1013.0
20260901152308 20 0.0 0.0 0.00 0.00 0.00 73 1013.0
20260901151308 20 0.0 0.0 0.00 0.00 0.00 74 1013.0
20260901150309 20 0.0 0.0 0.00 0.00 0.00 74 1013.0
20260901144308 21 0.0 0.0 0.00 0.00 0.00 70 1012.8
20260901140308 21 0.0 0.0 0.00 0.00 0.00 69 1012.6
20260901134308 20 0.0 0.0 0.00 0.00 0.00 71 1012.7
20260901133308 21 0.0 0.0 0.00 0.00 0.00 69 1012.6
20260901132308 21 0.0 0.0 0.00 0.00 0.00 69 1012.6
20260901125309 21 0.0 0.0 0.00 0.00 0.00 69 1012.5
20260901124308 21 0.0 0.0 0.00 0.00 0.00 68 1012.4
20260901123309 21 0.0 0.0 0.00 0.00 0.00 68 1012.4
20260901121308 21 0.0 0.0 0.00 0.00 0.00 70 1012.2
20260901115307 21 0.0 0.0 0.00 0.00 0.00 71 1012.2
20260901114308 21 0.0 0.0 0.00 0.00 0.00 72 1012.2
20260901113308 21 0.0 0.0 0.00 0.00 0.00 73 1012.1
20260901112308 21 0.0 0.0 0.00 0.00 0.00 74 1012.1
20260901111308 21 0.0 0.0 0.00 0.00 0.00 73 1012.0
20260901105308 21 0.0 0.0 0.00 0.00 0.00 78 1012.1
20260901104308 20 0.0 0.0 0.00 0.00 0.00 81 1012.2
20260901101307 19 0.0 0.0 0.00 0.00 0.00 85 1012.0
20260901100308 20 0.0 0.0 0.00 0.00 0.00 75 1011.8
20260901095308 21 0.0 0.0 0.00 0.00 0.00 71 1011.6
20260901094308 21 0.0 0.0 0.00 0.00 0.00 73 1011.5
20260901092309 19 0.0 0.0 0.00 0.00 0.00 74 1011.3
20260901083307 20 0.0 0.0 0.00 0.00 0.00 77 1011.2
20260901080307 18 0.0 0.0 0.00 0.00 0.00 81 1011.1
20260901075308 18 0.0 0.0 0.00 0.00 0.00 83 1010.9
20260901074309 18 0.0 0.0 0.00 0.00 0.00 83 1010.9